SKW3509 KMSP-KRAP

Flight info

Callsign SKW3509
Flight time 1h 19m
Altitude 38000
Route LEINY6 LEINY RAP
Aircraft E75L/M-SDE3GILORVW/S

Departure

Time 2026-05-08 02:38
Airport Minneapolis–Saint Paul International Airport / Wold–Chamberlain Field (KMSP)

Arrival

Time 2026-05-08 03:57
Airport Rapid City Regional Airport (KRAP)
Time Latitude Longitude Altitude Speed Heading
2026-05-08 02:00 44.88455 -93.20870 819 ft 0 kts 211°
2026-05-08 02:29 44.88455 -93.20871 819 ft 0 kts 211°
2026-05-08 02:30 44.88455 -93.20870 819 ft 0 kts 211°
2026-05-08 02:30 44.88466 -93.20861 820 ft 2 kts 211°
2026-05-08 02:30 44.88479 -93.20850 820 ft 2 kts 211°
2026-05-08 02:30 44.88487 -93.20843 820 ft 1 kts 211°
2026-05-08 02:31 44.88500 -93.20833 820 ft 2 kts 207°
2026-05-08 02:31 44.88514 -93.20824 820 ft 2 kts 202°
2026-05-08 02:31 44.88527 -93.20817 820 ft 2 kts 198°
2026-05-08 02:31 44.88542 -93.20812 820 ft 2 kts 193°
2026-05-08 02:32 44.88546 -93.20810 820 ft 0 kts 193°
2026-05-08 02:34 44.88542 -93.20810 820 ft 1 kts 177°
2026-05-08 02:34 44.88531 -93.20795 819 ft 3 kts 107°
2026-05-08 02:34 44.88523 -93.20747 818 ft 6 kts 101°
2026-05-08 02:35 44.88525 -93.20657 817 ft 10 kts 85°
2026-05-08 02:35 44.88499 -93.20556 817 ft 11 kts 121°
2026-05-08 02:35 44.88454 -93.20451 816 ft 13 kts 121°
2026-05-08 02:35 44.88401 -93.20329 814 ft 15 kts 121°
2026-05-08 02:36 44.88343 -93.20197 814 ft 16 kts 121°
2026-05-08 02:36 44.88282 -93.20055 813 ft 17 kts 121°
2026-05-08 02:36 44.88216 -93.19901 811 ft 19 kts 121°
2026-05-08 02:36 44.88144 -93.19736 808 ft 20 kts 121°
2026-05-08 02:37 44.88075 -93.19576 803 ft 16 kts 120°
2026-05-08 02:37 44.88102 -93.19446 800 ft 16 kts 15°
2026-05-08 02:37 44.88206 -93.19582 806 ft 44 kts 301°
2026-05-08 02:37 44.88495 -93.20249 814 ft 113 kts 302°
2026-05-08 02:38 44.89001 -93.21420 889 ft 160 kts 300°
2026-05-08 02:38 44.89576 -93.22760 1547 ft 161 kts 300°
2026-05-08 02:38 44.90148 -93.24103 2217 ft 165 kts 300°
2026-05-08 02:38 44.90737 -93.25489 2913 ft 167 kts 301°
2026-05-08 02:39 44.91344 -93.26907 3508 ft 176 kts 301°
2026-05-08 02:39 44.92009 -93.28473 3874 ft 199 kts 301°
2026-05-08 02:39 44.92764 -93.30245 4223 ft 225 kts 301°
2026-05-08 02:39 44.93619 -93.32256 4564 ft 251 kts 301°
2026-05-08 02:40 44.94534 -93.34406 5294 ft 259 kts 301°
2026-05-08 02:40 44.95444 -93.36536 6234 ft 258 kts 301°
2026-05-08 02:40 44.96331 -93.38687 7187 ft 254 kts 293°
2026-05-08 02:40 44.96488 -93.41134 8041 ft 260 kts 260°
2026-05-08 02:41 44.96008 -93.43582 8841 ft 260 kts 262°
2026-05-08 02:41 44.95698 -93.46073 9603 ft 261 kts 267°
2026-05-08 02:41 44.95499 -93.48592 10326 ft 263 kts 269°
2026-05-08 02:41 44.95352 -93.51215 10799 ft 274 kts 271°
2026-05-08 02:42 44.95229 -93.53961 11102 ft 292 kts 271°
2026-05-08 02:42 44.95115 -93.56872 11412 ft 308 kts 271°
2026-05-08 02:42 44.95000 -93.59972 11771 ft 321 kts 271°
2026-05-08 02:42 44.94884 -93.63181 12108 ft 334 kts 271°
2026-05-08 02:43 44.94764 -93.66486 12544 ft 343 kts 271°
2026-05-08 02:43 44.94643 -93.69841 13127 ft 347 kts 271°
2026-05-08 02:43 44.94519 -93.73261 13796 ft 348 kts 271°
2026-05-08 02:43 44.94396 -93.76608 14444 ft 348 kts 271°
2026-05-08 02:44 44.94269 -93.80059 15077 ft 350 kts 271°
2026-05-08 02:44 44.94144 -93.83449 15648 ft 352 kts 272°
2026-05-08 02:44 44.94014 -93.86934 16209 ft 355 kts 272°
2026-05-08 02:44 44.93884 -93.90373 16761 ft 357 kts 272°
2026-05-08 02:45 44.93751 -93.93887 17329 ft 358 kts 272°
2026-05-08 02:45 44.93618 -93.97350 17860 ft 360 kts 272°
2026-05-08 02:45 44.93481 -94.00915 18382 ft 362 kts 271°
2026-05-08 02:45 44.93497 -94.04422 18891 ft 361 kts 278°
2026-05-08 02:46 44.93657 -94.07938 19357 ft 364 kts 278°
2026-05-08 02:46 44.93816 -94.11523 19864 ft 366 kts 278°
2026-05-08 02:46 44.93975 -94.15124 20345 ft 369 kts 278°
2026-05-08 02:46 44.94130 -94.18714 20838 ft 371 kts 278°
2026-05-08 02:47 44.94288 -94.22364 21287 ft 374 kts 278°
2026-05-08 02:47 44.94445 -94.26028 21708 ft 377 kts 278°
2026-05-08 02:47 44.94601 -94.29723 22127 ft 380 kts 278°
2026-05-08 02:47 44.94757 -94.33417 22591 ft 382 kts 278°
2026-05-08 02:48 44.94913 -94.37168 23090 ft 382 kts 278°
2026-05-08 02:48 44.95068 -94.40896 23654 ft 381 kts 278°
2026-05-08 02:48 44.95219 -94.44585 24210 ft 379 kts 278°
2026-05-08 02:48 44.95370 -94.48290 24766 ft 378 kts 278°
2026-05-08 02:49 44.95519 -94.51980 25289 ft 376 kts 278°
2026-05-08 02:49 44.95666 -94.55632 25777 ft 376 kts 278°
2026-05-08 02:49 44.95811 -94.59300 26257 ft 376 kts 278°
2026-05-08 02:49 44.95956 -94.62965 26747 ft 375 kts 278°
2026-05-08 02:50 44.96100 -94.66635 27248 ft 373 kts 277°
2026-05-08 02:50 44.96241 -94.70280 27760 ft 372 kts 277°
2026-05-08 02:50 44.96381 -94.73923 28236 ft 371 kts 277°
2026-05-08 02:50 44.96521 -94.77589 28732 ft 369 kts 277°
2026-05-08 02:51 44.96656 -94.81162 29201 ft 368 kts 277°
2026-05-08 02:51 44.96791 -94.84758 29654 ft 367 kts 277°
2026-05-08 02:51 44.96926 -94.88361 30101 ft 366 kts 277°
2026-05-08 02:51 44.97057 -94.91919 30545 ft 365 kts 277°
2026-05-08 02:52 44.97186 -94.95444 31008 ft 364 kts 277°
2026-05-08 02:52 44.97316 -94.99007 31479 ft 362 kts 277°
2026-05-08 02:52 44.97443 -95.02549 31956 ft 360 kts 277°
2026-05-08 02:52 44.97568 -95.06071 32433 ft 358 kts 277°
2026-05-08 02:53 44.97691 -95.09540 32887 ft 357 kts 277°
2026-05-08 02:53 44.97813 -95.13017 33333 ft 355 kts 277°
2026-05-08 02:53 44.97932 -95.16452 33770 ft 353 kts 277°
2026-05-08 02:53 44.98051 -95.19904 34222 ft 351 kts 276°
2026-05-08 02:54 44.98169 -95.23335 34614 ft 349 kts 276°
2026-05-08 02:54 44.98283 -95.26727 34878 ft 348 kts 276°
2026-05-08 02:54 44.98397 -95.30133 35096 ft 349 kts 276°
2026-05-08 02:54 44.98511 -95.33545 35281 ft 350 kts 276°
2026-05-08 02:55 44.98624 -95.36974 35427 ft 351 kts 276°
2026-05-08 02:55 44.98848 -95.43861 35718 ft 352 kts 276°
2026-05-08 02:55 44.98957 -95.47285 35859 ft 353 kts 276°
2026-05-08 02:56 44.99068 -95.50752 36011 ft 353 kts 276°
2026-05-08 02:56 44.99176 -95.54210 36192 ft 354 kts 276°
2026-05-08 02:56 44.99284 -95.57677 36366 ft 355 kts 276°
2026-05-08 02:56 44.99391 -95.61128 36554 ft 356 kts 276°
2026-05-08 02:57 44.99497 -95.64584 36739 ft 356 kts 276°
2026-05-08 02:57 44.99603 -95.68102 36928 ft 356 kts 275°
2026-05-08 02:57 44.99707 -95.71577 37097 ft 357 kts 275°
2026-05-08 02:57 44.99810 -95.75054 37264 ft 358 kts 275°
2026-05-08 02:58 44.99912 -95.78540 37417 ft 358 kts 275°
2026-05-08 02:58 45.00014 -95.82068 37577 ft 359 kts 275°
2026-05-08 02:58 45.00114 -95.85556 37727 ft 359 kts 275°
2026-05-08 02:58 45.00215 -95.89102 37857 ft 355 kts 275°
2026-05-08 02:59 45.00311 -95.92534 37873 ft 354 kts 275°
2026-05-08 02:59 45.00505 -95.99547 37890 ft 360 kts 275°
2026-05-08 03:00 45.00695 -96.06568 37880 ft 360 kts 275°
2026-05-08 03:00 45.00881 -96.13622 37874 ft 360 kts 275°
2026-05-08 03:01 45.01062 -96.20636 37884 ft 359 kts 275°
2026-05-08 03:01 45.01240 -96.27705 37890 ft 360 kts 275°
2026-05-08 03:02 45.01412 -96.34714 37895 ft 360 kts 275°
2026-05-08 03:02 45.01580 -96.41734 37895 ft 359 kts 275°
2026-05-08 03:03 45.01745 -96.48779 37894 ft 359 kts 275°
2026-05-08 03:03 45.01905 -96.55842 37889 ft 360 kts 275°
2026-05-08 03:04 45.02060 -96.62852 37884 ft 359 kts 275°
2026-05-08 03:04 45.02211 -96.69909 37898 ft 360 kts 274°
2026-05-08 03:05 45.02358 -96.76942 37894 ft 360 kts 274°
2026-05-08 03:05 45.02501 -96.84011 37894 ft 360 kts 274°
2026-05-08 03:06 45.02639 -96.91065 37893 ft 360 kts 274°
2026-05-08 03:06 45.02773 -96.98068 37893 ft 360 kts 274°
2026-05-08 03:07 45.02903 -97.05170 37886 ft 360 kts 274°
2026-05-08 03:07 45.03029 -97.12221 37876 ft 361 kts 274°
2026-05-08 03:08 45.03150 -97.19282 37872 ft 360 kts 274°
2026-05-08 03:08 45.03266 -97.26308 37871 ft 360 kts 275°
2026-05-08 03:09 45.03379 -97.33376 37863 ft 362 kts 275°
2026-05-08 03:09 45.03487 -97.40459 37869 ft 362 kts 274°
2026-05-08 03:10 45.03592 -97.47559 37861 ft 362 kts 274°
2026-05-08 03:10 45.03691 -97.54646 37860 ft 362 kts 274°
2026-05-08 03:11 45.03584 -97.61740 37865 ft 366 kts 265°
2026-05-08 03:11 45.02468 -97.68758 37874 ft 369 kts 261°
2026-05-08 03:12 45.01269 -97.75812 37877 ft 368 kts 261°
2026-05-08 03:12 45.00072 -97.82794 37890 ft 368 kts 261°
2026-05-08 03:13 44.98862 -97.89817 37888 ft 368 kts 260°
2026-05-08 03:13 44.97655 -97.96796 37887 ft 369 kts 260°
2026-05-08 03:14 44.96434 -98.03825 37878 ft 367 kts 261°
2026-05-08 03:14 44.95217 -98.10809 37885 ft 368 kts 261°
2026-05-08 03:15 44.93997 -98.17783 37881 ft 367 kts 261°
2026-05-08 03:15 44.92770 -98.24771 37876 ft 369 kts 261°
2026-05-08 03:16 44.91539 -98.31750 37881 ft 370 kts 261°
2026-05-08 03:16 44.90294 -98.38781 37879 ft 369 kts 261°
2026-05-08 03:17 44.89050 -98.45781 37875 ft 369 kts 261°
2026-05-08 03:17 44.87803 -98.52771 37875 ft 370 kts 261°
2026-05-08 03:18 44.86550 -98.59761 37870 ft 370 kts 261°
2026-05-08 03:18 44.85291 -98.66765 37875 ft 370 kts 260°
2026-05-08 03:19 44.84035 -98.73724 37874 ft 369 kts 260°
2026-05-08 03:19 44.82766 -98.80730 37874 ft 368 kts 260°
2026-05-08 03:20 44.81500 -98.87690 37872 ft 369 kts 260°
2026-05-08 03:20 44.80226 -98.94669 37871 ft 370 kts 260°
2026-05-08 03:21 44.78945 -99.01661 37873 ft 370 kts 260°
2026-05-08 03:21 44.77660 -99.08646 37872 ft 370 kts 260°
2026-05-08 03:22 44.76374 -99.15611 37868 ft 370 kts 260°
2026-05-08 03:22 44.75073 -99.22632 37859 ft 369 kts 260°
2026-05-08 03:23 44.73780 -99.29582 37854 ft 369 kts 260°
2026-05-08 03:23 44.72481 -99.36540 37854 ft 369 kts 260°
2026-05-08 03:24 44.71183 -99.43470 37853 ft 369 kts 261°
2026-05-08 03:24 44.69879 -99.50399 37862 ft 369 kts 260°
2026-05-08 03:25 44.68562 -99.57377 37859 ft 369 kts 261°
2026-05-08 03:25 44.67254 -99.64283 37858 ft 368 kts 261°
2026-05-08 03:26 44.65928 -99.71252 37869 ft 369 kts 260°
2026-05-08 03:26 44.64614 -99.78138 37866 ft 369 kts 260°
2026-05-08 03:27 44.63283 -99.85089 37861 ft 369 kts 260°
2026-05-08 03:27 44.61951 -99.92017 37862 ft 369 kts 260°
2026-05-08 03:28 44.60612 -99.98956 37861 ft 369 kts 260°
2026-05-08 03:28 44.59276 -100.05858 37859 ft 368 kts 259°
2026-05-08 03:29 44.57927 -100.12803 37861 ft 369 kts 260°
2026-05-08 03:29 44.56584 -100.19685 37869 ft 368 kts 260°
2026-05-08 03:30 44.54552 -100.30060 37869 ft 367 kts 260°
2026-05-08 03:31 44.52016 -100.42933 37876 ft 368 kts 260°
2026-05-08 03:32 44.49936 -100.53432 37884 ft 381 kts 260°
2026-05-08 03:32 44.48486 -100.60719 37457 ft 404 kts 259°
2026-05-08 03:32 44.47714 -100.64584 37018 ft 414 kts 259°
2026-05-08 03:33 44.46946 -100.68417 36565 ft 415 kts 259°
2026-05-08 03:33 44.46162 -100.72324 36115 ft 412 kts 259°
2026-05-08 03:33 44.45390 -100.76167 35747 ft 412 kts 259°
2026-05-08 03:33 44.44629 -100.79951 35306 ft 411 kts 259°
2026-05-08 03:34 44.43851 -100.83787 34772 ft 410 kts 259°
2026-05-08 03:34 44.42848 -100.87544 33548 ft 420 kts 254°
2026-05-08 03:34 44.41800 -100.91328 32570 ft 416 kts 255°
2026-05-08 03:34 44.40787 -100.95087 31507 ft 415 kts 255°
2026-05-08 03:35 44.39784 -100.98839 30550 ft 411 kts 255°
2026-05-08 03:35 44.38800 -101.02523 29718 ft 405 kts 255°
2026-05-08 03:35 44.37832 -101.06144 28936 ft 398 kts 255°
2026-05-08 03:35 44.36881 -101.09700 28146 ft 392 kts 255°
2026-05-08 03:36 44.35908 -101.13335 27299 ft 387 kts 255°
2026-05-08 03:36 44.34980 -101.16791 26491 ft 382 kts 255°
2026-05-08 03:36 44.34058 -101.20225 25673 ft 378 kts 255°
2026-05-08 03:36 44.33141 -101.23634 24852 ft 373 kts 255°
2026-05-08 03:37 44.32241 -101.26976 24042 ft 368 kts 255°
2026-05-08 03:37 44.31348 -101.30282 23235 ft 363 kts 255°
2026-05-08 03:37 44.30471 -101.33527 22420 ft 359 kts 255°
2026-05-08 03:37 44.29597 -101.36759 21587 ft 357 kts 255°
2026-05-08 03:38 44.28730 -101.39961 20746 ft 354 kts 255°
2026-05-08 03:38 44.27868 -101.43140 19934 ft 351 kts 255°
2026-05-08 03:38 44.27008 -101.46307 19120 ft 349 kts 255°
2026-05-08 03:38 44.26156 -101.49438 18325 ft 346 kts 255°
2026-05-08 03:39 44.25320 -101.52510 17561 ft 343 kts 255°
2026-05-08 03:39 44.24472 -101.55620 16802 ft 340 kts 255°
2026-05-08 03:39 44.23644 -101.58653 16072 ft 337 kts 254°
2026-05-08 03:39 44.22823 -101.61656 15357 ft 334 kts 254°
2026-05-08 03:40 44.22003 -101.64652 14623 ft 331 kts 254°
2026-05-08 03:40 44.21189 -101.67625 13926 ft 328 kts 253°
2026-05-08 03:40 44.20380 -101.70573 13215 ft 326 kts 253°
2026-05-08 03:40 44.19582 -101.73478 12508 ft 323 kts 253°
2026-05-08 03:41 44.18789 -101.76363 11851 ft 319 kts 253°
2026-05-08 03:41 44.18000 -101.79227 11256 ft 313 kts 253°
2026-05-08 03:41 44.17236 -101.81995 10793 ft 304 kts 253°
2026-05-08 03:41 44.16490 -101.84699 10417 ft 293 kts 253°
2026-05-08 03:42 44.15776 -101.87283 10056 ft 283 kts 253°
2026-05-08 03:42 44.15081 -101.89795 9675 ft 276 kts 252°
2026-05-08 03:42 44.14398 -101.92265 9222 ft 272 kts 252°
2026-05-08 03:42 44.13717 -101.94727 8689 ft 271 kts 252°
2026-05-08 03:43 44.13042 -101.97162 8133 ft 272 kts 252°
2026-05-08 03:43 44.12364 -101.99603 7579 ft 272 kts 251°
2026-05-08 03:43 44.11692 -102.02021 7054 ft 272 kts 251°
2026-05-08 03:43 44.11005 -102.04489 6533 ft 271 kts 251°
2026-05-08 03:44 44.10330 -102.06912 6028 ft 270 kts 251°
2026-05-08 03:44 44.09655 -102.09334 5562 ft 269 kts 250°
2026-05-08 03:44 44.08988 -102.11724 5479 ft 266 kts 250°
2026-05-08 03:44 44.08312 -102.14146 5465 ft 267 kts 250°
2026-05-08 03:45 44.07639 -102.16550 5463 ft 268 kts 250°
2026-05-08 03:45 44.06965 -102.18958 5462 ft 268 kts 250°
2026-05-08 03:45 44.06292 -102.21360 5461 ft 268 kts 250°
2026-05-08 03:45 44.05612 -102.23791 5462 ft 269 kts 250°
2026-05-08 03:46 44.04941 -102.26202 5461 ft 269 kts 250°
2026-05-08 03:46 44.04270 -102.28621 5460 ft 268 kts 250°
2026-05-08 03:46 44.03604 -102.31031 5460 ft 269 kts 250°
2026-05-08 03:46 44.02917 -102.33460 5462 ft 270 kts 250°
2026-05-08 03:47 44.02227 -102.35864 5464 ft 269 kts 250°
2026-05-08 03:47 44.01540 -102.38279 5467 ft 269 kts 250°
2026-05-08 03:47 44.00852 -102.40705 5471 ft 270 kts 250°
2026-05-08 03:47 44.00164 -102.43132 5470 ft 270 kts 250°
2026-05-08 03:48 43.99475 -102.45568 5469 ft 270 kts 250°
2026-05-08 03:48 43.98786 -102.47999 5468 ft 270 kts 250°
2026-05-08 03:48 43.98108 -102.50392 5468 ft 270 kts 250°
2026-05-08 03:48 43.97419 -102.52818 5469 ft 269 kts 250°
2026-05-08 03:49 43.96732 -102.55238 5470 ft 270 kts 250°
2026-05-08 03:49 43.96040 -102.57671 5472 ft 270 kts 250°
2026-05-08 03:49 43.95356 -102.60078 5473 ft 270 kts 250°
2026-05-08 03:49 43.94667 -102.62494 5475 ft 270 kts 250°
2026-05-08 03:50 43.93985 -102.64889 5478 ft 270 kts 250°
2026-05-08 03:50 43.93294 -102.67307 5483 ft 270 kts 250°
2026-05-08 03:50 43.92596 -102.69752 5485 ft 270 kts 250°
2026-05-08 03:50 43.91909 -102.72156 5489 ft 270 kts 250°
2026-05-08 03:51 43.91210 -102.74597 5486 ft 271 kts 250°
2026-05-08 03:51 43.90522 -102.76999 5489 ft 271 kts 250°
2026-05-08 03:51 43.89825 -102.79431 5491 ft 271 kts 250°
2026-05-08 03:51 43.89136 -102.81830 5477 ft 263 kts 250°
2026-05-08 03:52 43.88480 -102.84110 5462 ft 243 kts 250°
2026-05-08 03:52 43.87879 -102.86198 5457 ft 226 kts 250°
2026-05-08 03:52 43.87303 -102.88201 5478 ft 224 kts 250°
2026-05-08 03:52 43.86763 -102.90218 5484 ft 225 kts 263°
2026-05-08 03:53 43.87021 -102.92306 5522 ft 222 kts 304°
2026-05-08 03:53 43.88163 -102.93696 5566 ft 221 kts 327°
2026-05-08 03:53 43.89476 -102.94802 5588 ft 222 kts 332°
2026-05-08 03:53 43.90848 -102.95793 5595 ft 222 kts 332°
2026-05-08 03:54 43.92202 -102.96783 5520 ft 218 kts 332°
2026-05-08 03:54 43.93515 -102.97747 5299 ft 210 kts 331°
2026-05-08 03:54 43.94759 -102.98663 5003 ft 193 kts 331°
2026-05-08 03:54 43.95876 -102.99485 4799 ft 171 kts 331°
2026-05-08 03:55 43.96880 -103.00225 4536 ft 155 kts 331°
2026-05-08 03:55 43.97795 -103.00899 4308 ft 141 kts 331°
2026-05-08 03:55 43.98635 -103.01518 4127 ft 135 kts 331°
2026-05-08 03:55 43.99466 -103.02126 3977 ft 136 kts 332°
2026-05-08 03:56 44.00330 -103.02726 3791 ft 139 kts 332°
2026-05-08 03:56 44.01183 -103.03333 3595 ft 136 kts 330°
2026-05-08 03:56 44.02003 -103.03973 3393 ft 136 kts 329°
2026-05-08 03:56 44.02826 -103.04602 3230 ft 135 kts 330°
2026-05-08 03:57 44.03647 -103.05214 3135 ft 128 kts 330°
2026-05-08 03:57 44.04293 -103.05692 3163 ft 77 kts 332°
2026-05-08 03:57 44.04673 -103.05978 3176 ft 45 kts 330°
2026-05-08 03:57 44.04806 -103.06116 3179 ft 14 kts 268°
2026-05-08 03:58 44.04770 -103.06216 3174 ft 13 kts 213°
2026-05-08 03:58 44.04683 -103.06177 3173 ft 14 kts 153°
2026-05-08 03:58 44.04591 -103.06109 3171 ft 16 kts 152°
2026-05-08 03:58 44.04487 -103.06030 3168 ft 18 kts 152°
2026-05-08 03:59 44.04372 -103.05946 3167 ft 19 kts 152°
2026-05-08 03:59 44.04258 -103.05860 3165 ft 14 kts 151°
2026-05-08 03:59 44.04169 -103.05877 3163 ft 15 kts 226°
2026-05-08 03:59 44.04086 -103.05943 3162 ft 12 kts 204°
2026-05-08 04:00 44.04015 -103.05969 3161 ft 10 kts 202°
2026-05-08 04:00 44.03983 -103.05988 3160 ft 2 kts 205°
2026-05-08 04:00 44.03978 -103.05992 3159 ft 0 kts 205°